Terminal Aerodrome Forecast
Issued by NWS

Home | Current Version | Previous Version | Graphics & Text | Print | Product List | Glossary On
Versions: 1 2 3 4 5 6 7 8 9 10 11 12 13 14 15 16 17 18 19 20 21 22
843
FTUS43 KBIS 112111 AAB
TAFMOT
TAF AMD
KMOT 112111Z 1121/1218 31010KT P6SM SCT025 BKN035
     FM112300 31011KT P6SM SCT015 BKN025
     FM120600 26006KT P6SM BKN035
     FM120800 25005KT P6SM SCT025 BKN180
     FM121200 26008KT P6SM BKN120=

USA.gov is the U.S. government's official web portal to all federal, state and local government web resources and services.